User: anonymous   Login
Location: ?????
(44.4284°N, 135.2222°E)
Time: 10:48:46
(UTC+00:00)
Language:

Cosmos 1805 - Orbit

View from above orbital plane
View from above orbital plane
View from above satellite
View from above satellite

Ground track
Ground track

The orbit data is extracted from the following two-line orbital elements,

1 17191U 86097A   25196.81783077  .00009045  00000-0  23297-3 0  9997
2 17191  82.4657 340.3768 0001624 275.6647  84.4413 15.39054538110609
Epoch (UTC): 15 July 2025 19:37:40
Eccentricity: 0.0001624
inclination: 82.4657°
perigee height: 448 km
apogee height: 450 km
right ascension of ascending node: 340.3768°
argument of perigee: 275.6647°
revolutions per day: 15.39054538
mean anomaly at epoch: 84.4413°
orbit number at epoch: 11060

The dashed part of the orbit path shows where the satellite is in the earth's shadow,  

DLR